Weather reports worldwide

Advertisment
Plymouth, United Kingdom (3827): temperature & dewpoint: 15.05.2019 16:00:00 - 21.05.2019 16:00:00 (BST)Plymouth, United Kingdom (3827): wind speed: 15.05.2019 16:00:00 - 21.05.2019 16:00:00 (BST)Plymouth, United Kingdom (3827): wind direction: 15.05.2019 16:00:00 - 21.05.2019 16:00:00 (BST)Plymouth, United Kingdom (3827): reduced air pressure: 15.05.2019 16:00:00 - 21.05.2019 16:00:00 (BST)Plymouth, United Kingdom (3827): visibility: 15.05.2019 16:00:00 - 21.05.2019 16:00:00 (BST)Plymouth, United Kingdom (3827): precipitation: 15.05.2019 16:00:00 - 21.05.2019 16:00:00 (BST)
Date & Time tt [°C] td [°C] ff [km/h] ff [kn] dd ppp [hPa] vv [km] rr [mm]
21.05.2019 16:00:00 - - - - - - - -
21.05.2019 15:00:00 17,2 9,4 16 9 SSW 1020,8 18 0,0
21.05.2019 14:00:00 16,7 9,7 21 11 SSW 1020,8 17 0,0
21.05.2019 13:00:00 17,3 10,7 16 9 SSW 1020,6 15 0,0
21.05.2019 12:00:00 16,9 10,7 16 9 SSW 1020,4 16 0,0
21.05.2019 11:00:00 17,1 11,0 11 6 SSW 1020,2 6 0,0
21.05.2019 10:00:00 16,4 10,7 8 4 W 1020,0 13 0,0
21.05.2019 09:00:00 14,0 8,4 4 2 NW 1019,8 35 0,0
21.05.2019 08:00:00 11,8 8,3 5 3 N 1019,4 14 0,0
21.05.2019 07:00:00 9,0 7,5 9 5 NNW 1019,2 19 0,0
21.05.2019 06:00:00 7,4 6,0 5 3 NNW 1018,7 15 0,0
21.05.2019 05:00:00 8,3 6,5 9 5 N 1018,6 24 0,0
21.05.2019 04:00:00 9,0 7,0 11 6 N 1018,5 18 0,0
21.05.2019 03:00:00 9,2 7,0 11 6 N 1018,2 26 0,0
21.05.2019 02:00:00 9,3 7,3 9 5 NNW 1018,0 21 0,0
21.05.2019 01:00:00 9,9 7,9 9 5 NNW 1017,7 30 0,0
21.05.2019 00:00:00 10,1 8,0 11 6 N 1017,6 10 0,0
20.05.2019 23:00:00 10,4 7,7 9 5 N 1017,7 24 0,0
20.05.2019 22:00:00 11,8 7,4 11 6 NNW 1017,3 15 0,0
20.05.2019 21:00:00 13,4 6,0 16 9 NNW 1016,5 21 0,0
20.05.2019 20:00:00 15,1 6,1 21 11 NNW 1016,0 24 0,0
20.05.2019 19:00:00 15,3 7,5 21 11 NNW 1015,5 16 0,0
20.05.2019 18:00:00 16,2 8,7 21 11 NW 1015,0 35 0,0
20.05.2019 17:00:00 15,2 10,1 16 9 SSW 1014,9 24 0,0
20.05.2019 16:00:00 16,9 10,5 21 11 SSW 1015,0 30 0,0
20.05.2019 15:00:00 17,1 10,6 24 13 SSW 1014,9 50 0,0
20.05.2019 14:00:00 17,9 9,8 21 11 SSW 1014,6 20 0,0
20.05.2019 13:00:00 16,7 10,2 18 10 SSW 1014,4 9 0,0
20.05.2019 12:00:00 16,5 9,3 9 5 W 1014,3 9 0,0
20.05.2019 11:00:00 17,0 10,5 8 4 NW 1014,2 24 0,0
20.05.2019 10:00:00 14,0 9,8 9 5 NNW 1014,4 40 0,0
20.05.2019 09:00:00 12,2 8,9 8 4 NW 1014,3 29 0,0
20.05.2019 08:00:00 10,4 8,8 8 4 N 1013,9 23 0,0
20.05.2019 07:00:00 9,2 7,8 8 4 N 1013,4 35 0,0
20.05.2019 06:00:00 9,0 7,6 9 5 N 1013,1 35 0,0
20.05.2019 05:00:00 8,5 7,2 11 6 NNW 1013,0 23 0,0
20.05.2019 04:00:00 8,7 7,3 8 4 NNW 1012,9 16 0,0
20.05.2019 03:00:00 9,1 7,6 9 5 NNW 1013,2 30 0,0
20.05.2019 02:00:00 9,2 7,7 11 6 N 1013,1 11 0,0
20.05.2019 01:00:00 9,4 7,7 11 6 NNW 1013,1 16 0,0
20.05.2019 00:00:00 9,9 7,7 11 6 NNW 1013,2 24 0,0
19.05.2019 23:00:00 10,5 7,8 13 7 NW 1013,2 21 0,0
19.05.2019 22:00:00 11,3 7,7 9 5 NW 1013,1 20 0,0
19.05.2019 21:00:00 12,7 7,9 18 10 NNW 1012,6 29 0,0
19.05.2019 20:00:00 14,6 8,5 16 9 NNW 1012,1 18 0,0
19.05.2019 19:00:00 16,1 7,5 18 10 NNW 1011,4 30 0,0
19.05.2019 18:00:00 16,6 7,9 22 12 NW 1011,3 26 0,0
19.05.2019 17:00:00 17,5 9,4 24 13 NW 1011,0 27 0,0
19.05.2019 16:00:00 18,3 8,8 22 12 NNW 1010,9 15 0,0
19.05.2019 15:00:00 17,7 8,8 22 12 NNW 1010,9 20 0,0
19.05.2019 14:00:00 18,4 8,3 22 12 NNW 1011,1 28 0,0
19.05.2019 13:00:00 18,9 9,8 15 8 N 1011,0 23 0,0
19.05.2019 12:00:00 15,4 8,8 18 10 NW 1010,9 30 0,0
19.05.2019 11:00:00 15,1 8,3 22 12 NNW 1010,9 35 0,0
19.05.2019 10:00:00 15,1 9,2 21 11 NNW 1010,8 23 0,0
19.05.2019 09:00:00 13,8 9,9 9 5 NNW 1010,6 16 0,0
19.05.2019 08:00:00 11,6 9,1 8 4 NNW 1010,4 22 0,0
19.05.2019 07:00:00 10,6 8,4 8 4 NNW 1010,2 19 0,0
19.05.2019 06:00:00 10,7 8,2 9 5 NNW 1010,0 27 0,0
19.05.2019 05:00:00 10,9 8,1 13 7 NNW 1010,0 14 0,0
19.05.2019 04:00:00 10,9 8,1 9 5 N 1009,9 16 0,0
19.05.2019 03:00:00 11,2 7,9 11 6 N 1009,8 30 0,0
19.05.2019 02:00:00 11,5 8,3 9 5 NNW 1009,8 18 0,0
19.05.2019 01:00:00 11,7 9,1 8 4 NNW 1009,7 22 0,0
19.05.2019 00:00:00 12,3 9,4 11 6 NNW 1009,6 28 0,0
18.05.2019 23:00:00 12,2 10,4 5 3 NNE 1009,4 7 0,0
18.05.2019 22:00:00 12,8 9,8 4 2 NNE 1009,3 17 0,0
18.05.2019 21:00:00 12,4 10,3 8 4 W 1009,0 15 0,0
18.05.2019 20:00:00 12,9 10,6 9 5 SSW 1008,6 8 0,0
18.05.2019 19:00:00 13,3 10,7 5 3 S 1008,2 12 0,0
18.05.2019 18:00:00 12,8 10,7 11 6 SSW 1007,9 9 0,0
18.05.2019 17:00:00 12,3 10,8 15 8 SSW 1007,8 9 0,0
18.05.2019 16:00:00 13,5 11,3 13 7 SSW 1007,6 15 0,0
18.05.2019 15:00:00 12,8 10,4 13 7 S 1007,5 10 0,0
18.05.2019 14:00:00 14,5 10,4 13 7 SSW 1007,2 18 0,0
18.05.2019 13:00:00 15,1 10,5 13 7 SSW 1007,1 23 0,0
18.05.2019 12:00:00 15,4 9,3 9 5 SSW 1007,2 14 0,0
18.05.2019 11:00:00 13,8 9,3 8 4 SW 1007,3 17 0,0
18.05.2019 10:00:00 13,3 9,6 4 2 SSW 1007,1 23 0,0
18.05.2019 09:00:00 12,5 9,5 5 3 SW 1007,0 18 0,0
18.05.2019 08:00:00 11,1 8,7 4 2 NNW 1006,8 20 0,0
18.05.2019 07:00:00 10,5 7,9 5 3 ENE 1006,8 25 0,0
18.05.2019 06:00:00 10,5 8,6 5 3 NNW 1006,6 11 0,0
18.05.2019 05:00:00 10,6 8,8 8 4 N 1006,4 15 0,0
18.05.2019 04:00:00 10,5 8,9 5 3 NNW 1006,7 10 0,0
18.05.2019 03:00:00 10,1 8,4 4 2 W 1007,1 9 0,0
18.05.2019 02:00:00 10,5 8,7 4 2 NNE 1007,3 11 0,0
18.05.2019 01:00:00 10,6 8,9 5 3 N 1007,7 10 0,0
18.05.2019 00:00:00 11,0 9,4 9 5 N 1007,8 12 0,0
17.05.2019 23:00:00 10,9 9,4 5 3 N 1008,1 9 0,0
17.05.2019 22:00:00 10,9 9,6 11 6 N 1008,1 11 0,0
17.05.2019 21:00:00 10,9 9,5 9 5 N 1008,1 8 0,0
17.05.2019 20:00:00 10,8 9,7 11 6 N 1008,3 3,8 0,0
17.05.2019 19:00:00 11,7 9,0 9 5 NNW 1008,2 7 0,0
17.05.2019 18:00:00 11,8 9,1 9 5 NNE 1008,5 17 0,0
17.05.2019 17:00:00 11,7 8,5 5 3 NNE 1008,8 14 0,0
17.05.2019 16:00:00 11,7 8,3 4 2 NNE 1009,1 13 0,0
17.05.2019 15:00:00 11,8 8,5 11 6 N 1009,5 6 0,0
17.05.2019 14:00:00 12,8 7,2 11 6 NE 1009,5 15 0,0
17.05.2019 13:00:00 14,4 6,8 9 5 NE 1009,4 18 0,0
17.05.2019 12:00:00 15,9 6,5 13 7 NE 1009,4 17 0,0
17.05.2019 11:00:00 14,5 5,9 16 9 NNE 1009,6 28 0,0
17.05.2019 10:00:00 14,0 5,7 11 6 NNE 1010,0 35 0,0
17.05.2019 09:00:00 12,3 6,0 13 7 NNE 1010,4 13 0,0
17.05.2019 08:00:00 11,0 5,2 16 9 NNE 1010,8 35 0,0
17.05.2019 07:00:00 8,1 4,4 8 4 NE 1011,3 24 0,0
17.05.2019 06:00:00 6,9 3,2 8 4 ENE 1011,5 21 0,0
17.05.2019 05:00:00 7,0 3,0 9 5 NE 1011,6 20 0,0
17.05.2019 04:00:00 7,1 3,8 8 4 ENE 1012,0 19 0,0
17.05.2019 03:00:00 6,7 2,9 4 2 NNW 1012,4 19 0,0
17.05.2019 02:00:00 8,5 3,5 5 3 ENE 1012,8 40 0,0
17.05.2019 01:00:00 9,3 3,5 9 5 NE 1013,3 13 0,0
17.05.2019 00:00:00 9,5 3,0 5 3 NNE 1013,7 30 0,0
16.05.2019 23:00:00 10,3 3,0 5 3 NE 1014,1 14 0,0
16.05.2019 22:00:00 11,6 2,6 8 4 NE 1014,3 30 0,0
16.05.2019 21:00:00 12,4 2,2 9 5 ENE 1014,3 23 0,0
16.05.2019 20:00:00 13,6 1,5 9 5 ENE 1014,4 35 0,0
16.05.2019 19:00:00 14,3 0,8 16 9 E 1014,7 27 0,0
16.05.2019 18:00:00 15,2 0,3 18 10 E 1015,0 35 0,0
16.05.2019 17:00:00 15,5 0,6 21 11 E 1015,4 12 0,0
16.05.2019 16:00:00 15,4 1,6 22 12 E 1015,7 29 0,0
16.05.2019 15:00:00 15,5 2,9 22 12 E 1016,1 19 0,0
16.05.2019 14:00:00 15,7 2,0 22 12 E 1016,7 15 0,0
16.05.2019 13:00:00 15,4 8,2 16 9 E 1017,2 9 0,0
16.05.2019 12:00:00 16,0 8,5 15 8 E 1017,4 13 0,0
16.05.2019 11:00:00 13,8 7,4 21 11 E 1017,5 14 0,0
16.05.2019 10:00:00 13,0 7,0 21 11 E 1017,9 18 0,0
16.05.2019 09:00:00 11,8 6,8 16 9 E 1018,4 15 0,0
16.05.2019 08:00:00 11,1 7,0 18 10 E 1018,5 15 0,0
16.05.2019 07:00:00 10,3 7,4 16 9 E 1018,8 11 0,0
16.05.2019 06:00:00 9,7 6,2 15 8 E 1018,6 15 0,0
16.05.2019 05:00:00 9,6 6,0 15 8 E 1018,7 20 0,0
16.05.2019 04:00:00 9,7 5,9 13 7 E 1019,5 18 0,0
16.05.2019 03:00:00 9,3 5,6 13 7 E 1020,2 17 0,0
16.05.2019 02:00:00 9,4 5,2 9 5 E 1020,6 22 0,0
16.05.2019 01:00:00 10,0 4,8 13 7 E 1021,1 18 0,0
16.05.2019 00:00:00 10,5 4,3 11 6 E 1021,3 14 0,0
15.05.2019 23:00:00 10,5 3,4 13 7 E 1021,6 17 0,0
15.05.2019 22:00:00 11,2 3,2 13 7 E 1021,9 23 0,0
15.05.2019 21:00:00 12,4 2,0 13 7 E 1022,1 30 0,0
15.05.2019 20:00:00 14,1 0,9 13 7 E 1022,3 28 0,0
15.05.2019 19:00:00 15,2 1,7 15 8 E 1022,5 24 0,0
15.05.2019 18:00:00 15,8 2,6 16 9 E 1023,2 18 0,0
15.05.2019 17:00:00 16,9 4,0 18 10 E 1023,3 15 0,0
15.05.2019 16:00:00 16,9 5,5 22 12 ESE 1023,5 30 0,0

tt = temperature
td = dewpoint
ff = wind speed
dd = wind direction
ppp = reduced air pressure
vv = visibility
rr = precipitation

Next stations